Regional Weather Roundup
Issued by NWS

Home | Current Version | Previous Version | Text Only | Print | Product List | Glossary Off
Versions: 1 2 3 4 5 6 7 8 9 10 11 12 13 14 15 16 17 18 19 20 21 22 23 24 25 26 27 28 29 30 31 32 33 34 35 36 37 38 39 40 41 42 43 44 45 46 47 48 49 50

000
ASUS43 KLMK 190410
RWRKY
KENTUCKY REGIONAL WEATHER ROUNDUP
NATIONAL WEATHER SERVICE LOUISVILLE KY
1100 PM EST THU JAN 18 2018

NOTE "FAIR" INDICATES FEW OR NO CLOUDS BELOW 12,000 FEET
WITH NO SIGNIFICANT WEATHER AND/OR OBSTRUCTIONS TO VISIBILITY.

KYZ001>023-026-027-061>063-070>075-190500-
WESTERN AND SOUTH CENTRAL KENTUCKY

CITY           SKY/WX    TMP DP  RH WIND       PRES   REMARKS
PADUCAH        FAIR      19   9  65 SW6       30.31S WCI  11
HENDERSON      FAIR      24  13  62 SW9       30.28F WCI  14
OWENSBORO      FAIR      20  11  68 S7        30.30S WCI  11
HOPKINSVILLE   FAIR      23  10  57 CALM      30.32S
BOWLING GREEN  FAIR      23  14  68 S3        30.33F
GLASGOW        FAIR      21  13  70 CALM      30.32S
$$

KYZ024-025-028>034-038-045-046-053-190500-
NORTH CENTRAL KENTUCKY

CITY           SKY/WX    TMP DP  RH WIND       PRES   REMARKS
LOUISVILLE/SDF FAIR      27  13  55 S8        30.28F WCI  19
LOUISVILLE/LOU FAIR      24  13  62 S9        30.29F WCI  14
FORT KNOX      FAIR      19  10  68 S9        30.27F WCI   9
$$

KYZ035>037-039>044-047>052-055>060-089>105-190500-
NORTHEAST KENTUCKY

CITY           SKY/WX    TMP DP  RH WIND       PRES   REMARKS
LEXINGTON      FAIR      21   9  59 S9        30.28S WCI  11
COVINGTON      FAIR      24  14  65 SW9       30.21S WCI  14
FRANKFORT      FAIR      23  10  57 SW12      30.27S WCI  12
$$

KYZ054-064>069-076>088-106>120-190500-
SOUTHEAST KENTUCKY

CITY           SKY/WX    TMP DP  RH WIND       PRES   REMARKS
JACKSON        FAIR      24  12  60 SW3       30.28S
LONDON         FAIR      19  12  74 CALM      30.31S
SOMERSET       FAIR      19  14  79 CALM      30.34F
MIDDLESBORO    FAIR      18  16  90 CALM      30.36R
MONTICELLO     FAIR      11   7  84 W9        30.35R WCI  -2
$$




USA.gov is the U.S. government's official web portal to all federal, state and local government web resources and services.